Al Ain Intl, UAE

10:09 PM GST on December 02, 2016 (GMT +0400)
Al Ain International

Weather History for OMAL - May, 2013

Change the Weather History Date:

Wednesday, May 15, 2013

  Actual Average Record
Temperature  
Mean Temperature 95 °F -  
Max Temperature 108 °F 105 °F 111 °F (1999)
Min Temperature 82 °F 77 °F 66 °F (2004)
Cooling Degree Days 30    
Growing Degree Days 45 (Base 50)    
Moisture  
Dew Point 43 °F    
Average Humidity 16    
Maximum Humidity 32    
Minimum Humidity 5    
Precipitation  
Precipitation 0.00 in - - ()
Sea Level Pressure  
Sea Level Pressure 29.72 in    
Wind  
Wind Speed 7 mph ()    
Max Wind Speed 18 mph    
Max Gust Speed -    
Visibility 4.6 miles    
Events      
Averages and records for this station are not official NWS values.
T = Trace of Precipitation, MM = Missing Value Source: Averaged Metar Reports

Daily Weather History Graph

Daily Weather History Graph

Search for Another Location

Airport or City:

Trip Planner

Search our weather history database for the weather conditions in past years. The results will help you decide how hot, cold, wet, or windy it might be!

Date:

Astronomy

May. 15, 2013 Rise Set
Actual Time 5:34 AM GST 6:53 PM GST
Civil Twilight 5:10 AM GST 7:18 PM GST
Nautical Twilight 4:40 AM GST 7:47 PM GST
Astronomical Twilight 4:10 AM GST 8:17 PM GST
Moon 9:43 AM GST (5/15) 11:08 PM GST (5/15)
Length of Visible Light 14h 08m
Length of Day
13h 18m
Waxing Crescent, 24% of the Moon is Illuminated
May 15
Waxing Crescent
May 18
First Quarter
May 25
Full
May 31
Last Quarter
Jun 8
New

Hourly Weather History & Observations

Time (GST) Temp. Dew Point Humidity Pressure Visibility Wind Dir Wind Speed Gust Speed Precip Events Conditions
12:00 AM 89.6 °F 41.0 °F 18% 29.74 in - North 4.6 mph - N/A   Clear
1:00 AM 86 °F 42 °F 13% 29.69 in 6 mi North 5.8 mph - -  
1:00 AM 86.0 °F 42.8 °F 22% 29.74 in - North 5.8 mph - N/A   Clear
2:00 AM 86.0 °F 50.0 °F 29% 29.71 in - NNW 6.9 mph - N/A   Clear
3:00 AM 86.0 °F 46.4 °F 25% 29.71 in - North 4.6 mph - N/A   Clear
4:00 AM 83 °F 44 °F 16% 29.68 in 6 mi NNE 5.8 mph - -  
4:00 AM 82.4 °F 44.6 °F 26% 29.71 in - NNE 5.8 mph - N/A   Clear
5:00 AM 82.4 °F 50.0 °F 32% 29.71 in 5.0 mi NE 6.9 mph - N/A   Unknown
6:00 AM 84.2 °F 46.4 °F 27% 29.71 in 3.7 mi NE 8.1 mph - N/A   Unknown
7:00 AM 86 °F 44 °F 14% 29.70 in 3 mi East 4.6 mph - -   Widespread Dust
7:00 AM 86.0 °F 42.8 °F 22% 29.74 in 3.1 mi East 4.6 mph - N/A   Unknown
8:00 AM 93.2 °F 42.8 °F 17% 29.77 in 3.1 mi NE 3.5 mph - N/A   Unknown
8:09 AM 91.4 °F 46.4 °F 21% 29.77 in 2.8 mi NE 4.6 mph - N/A   Unknown
8:39 AM 96.8 °F 42.8 °F 16% 29.77 in 3.1 mi NNE 5.8 mph - N/A   Unknown
9:00 AM 98.6 °F 37.4 °F 12% 29.77 in 3.7 mi North 8.1 mph - N/A   Unknown
10:00 AM 101 °F 38 °F 5% 29.70 in 5 mi North 9.2 mph - -   Widespread Dust
10:00 AM 100.4 °F 37.4 °F 11% 29.77 in 5.0 mi North 9.2 mph - N/A   Unknown
11:00 AM 104.0 °F 37.4 °F 10% 29.74 in 5.0 mi North 6.9 mph - N/A   Unknown
12:00 PM 107.6 °F 37.4 °F 9% 29.74 in 5.6 mi NNW 9.2 mph - N/A   Unknown
1:00 PM 107 °F 43 °F 6% 29.66 in 6 mi WNW 17.3 mph - -   Widespread Dust
1:00 PM 107.6 °F 42.8 °F 11% 29.74 in 5.6 mi WNW 17.3 mph - N/A   Unknown
2:00 PM 107.6 °F 46.4 °F 13% 29.74 in 5.0 mi WNW 15.0 mph - N/A   Unknown
3:00 PM 107.6 °F 41.0 °F 10% 29.71 in 5.0 mi NW 17.3 mph - N/A   Unknown
4:00 PM 108 °F 41 °F 5% 29.62 in 5 mi NNW 17.3 mph - -   Widespread Dust
4:00 PM 107.6 °F 41.0 °F 10% 29.71 in 5.0 mi NNW 17.3 mph - N/A   Unknown
5:00 PM 105.8 °F 41.0 °F 11% 29.71 in 4.3 mi NNW 17.3 mph - N/A   Unknown
6:00 PM 102.2 °F 41.0 °F 12% 29.71 in 4.3 mi NW 18.4 mph - N/A   Unknown
7:00 PM 100 °F 42 °F 7% 29.65 in 4 mi NW 9.2 mph - -   Widespread Dust
7:00 PM 100.4 °F 41.0 °F 13% 29.71 in 4.3 mi NW 9.2 mph - N/A   Unknown
8:00 PM 96.8 °F 41.0 °F 15% 29.74 in 5.0 mi NW 8.1 mph - N/A   Unknown
9:00 PM 93.2 °F 44.6 °F 19% 29.74 in 5.0 mi NW 6.9 mph - N/A   Unknown
10:00 PM 91 °F 44 °F 11% 29.71 in 5 mi North 6.9 mph - -   Widespread Dust
10:00 PM 91.4 °F 44.6 °F 20% 29.74 in 5.0 mi North 6.9 mph - N/A   Unknown
11:00 PM 87.8 °F 42.8 °F 21% 29.74 in 5.0 mi ENE 3.5 mph - N/A   Unknown